Volver al catálogo

QIANFAN-191

ActivoComunicacionesPO
NORAD 69409·PAYLOAD·🇨🇳 China

Lanzado Jun 5, 2026 desde Wenchang Space Launch Site

Loading…

Próximos Pases (próximas 24 horas)

TLE

ActualizadoSource: Space-Track

Época: Sep 14, 2026, 20:48 UTC

1 69409U 26125J   26257.86726622  .00000004  00000-0 -12503-4 0  9995
2 69409  88.9881 270.8935 0001941 102.6896 257.4473 13.51032863 14057

Sigue QIANFAN-191 en tiempo real con AllMySat

Download on the App Store